User: anonymous   Login
Location: Ferma
(41.9500°N, 44.5167°E)
Time: 08:59:01
(UTC+00:00)
Language:

Cosmos 405 Rocket - Orbit

View from above orbital plane
View from above orbital plane
View from above satellite
View from above satellite

Ground track
Ground track

The orbit data is extracted from the following two-line orbital elements,

1 05118U 71028B   22019.50773600  .00002835  00000-0  14425-3 0  9992
2 05118  81.2541  28.6693 0047281  58.7662 301.8186 15.15493698757780
Epoch (UTC): 19 January 2022 12:11:08
Eccentricity: 0.0047281
inclination: 81.2541°
perigee height: 487 km
apogee height: 552 km
right ascension of ascending node: 28.6693°
argument of perigee: 58.7662°
revolutions per day: 15.15493698
mean anomaly at epoch: 301.8186°
orbit number at epoch: 75778

The dashed part of the orbit path shows where the satellite is in the earth's shadow,  

DLR